This is the latest recevied weather packets stored in our database for station/object WC4PEM-14. If no packets are shown the sender has not sent any weather packets the latest 1 day(s).
| Time | Temp. | Humidity | Pressure | Rain* | Wind** | Luminosity | Snow |
|---|---|---|---|---|---|---|---|
| 1778082483 | 30.56° C | 49% | 1016.7 hPa | 0 mm | - | - | - |
| 1778082183 | 30.56° C | 49% | 1016.8 hPa | 0 mm | - | - | - |
| 1778081583 | 30.56° C | 52% | 1016.7 hPa | 0 mm | - | - | - |
| 1778081283 | 30° C | 50% | 1016.7 hPa | 0 mm | - | - | - |
| 1778081154 | 30° C | 55% | 1016.7 hPa | 0 mm | - | - | - |
| 1778080983 | 30° C | 55% | 1016.7 hPa | 0 mm | - | - | - |
| 1778080683 | 30° C | 53% | 1016.7 hPa | 0 mm | - | - | - |
| 1778080383 | 29.44° C | 54% | 1016.7 hPa | 0 mm | - | - | - |
| 1778080083 | 29.44° C | 56% | 1016.6 hPa | 0 mm | - | - | - |
| 1778079783 | 28.89° C | 58% | 1016.6 hPa | 0 mm | - | - | - |
| 1778079483 | 28.89° C | 59% | 1016.6 hPa | 0 mm | - | - | - |
| 1778079183 | 28.89° C | 59% | 1016.7 hPa | 0 mm | - | - | - |
| 1778078883 | 28.89° C | 62% | 1016.7 hPa | 0 mm | - | - | - |
| 1778078583 | 28.33° C | 62% | 1016.7 hPa | 0 mm | - | - | - |
| 1778078283 | 28.33° C | 64% | 1016.6 hPa | 0 mm | - | - | - |
| 1778077983 | 27.78° C | 64% | 1016.7 hPa | 0 mm | - | - | - |
| 1778077780 | 27.78° C | 65% | 1016.8 hPa | 0 mm | - | - | - |
| 1778077683 | 27.78° C | 65% | 1016.8 hPa | 0 mm | - | - | - |
| 1778077383 | 27.78° C | 65% | 1016.8 hPa | 0 mm | - | - | - |
| 1778077083 | 27.78° C | 67% | 1016.8 hPa | 0 mm | - | - | - |
| 1778076612 | 26.67° C | 69% | 1016.7 hPa | 0 mm | - | - | - |
| 1778076412 | 26.67° C | 70% | 1016.8 hPa | 0 mm | - | - | - |
| 1778075583 | 26.11° C | 73% | 1016.7 hPa | 0 mm | - | - | - |
| 1778075377 | 26.11° C | 75% | 1016.8 hPa | 0 mm | - | - | - |
| 1778074983 | 26.11° C | 75% | 1016.8 hPa | 0 mm | - | - | - |
* Rain latest hour (hover to see other rain measurements)
** Current wind speed in m/s (hover to see current wind gust speed)